This is the latest recevied weather packets stored in our database for station/object WE8L. If no packets are shown the sender has not sent any weather packets the latest 10 day(s).
| Time | Temp. | Humidity | Pressure | Rain* | Wind** | Luminosity | Snow |
|---|---|---|---|---|---|---|---|
| 1777942973 | 21.67° C | 54% | 1007.5 hPa | 0 mm | - | 0 W/m² | - |
| 1777942669 | 21.67° C | 54% | 1007.5 hPa | 0 mm | - | 0 W/m² | - |
| 1777942367 | 21.67° C | 53% | 1007.7 hPa | 0 mm | - | 0 W/m² | - |
| 1777942064 | 22.22° C | 53% | 1007.7 hPa | 0 mm | - | 0 W/m² | - |
| 1777941760 | 22.22° C | 52% | 1007.7 hPa | 0 mm | - | 0 W/m² | - |
| 1777941457 | 22.22° C | 51% | 1007.5 hPa | 0 mm | - | 1 W/m² | - |
| 1777941155 | 22.22° C | 51% | 1007.5 hPa | 0 mm | - | 1 W/m² | - |
| 1777940851 | 22.22° C | 51% | 1007.7 hPa | 0 mm | - | 2 W/m² | - |
| 1777940548 | 22.78° C | 51% | 1007.5 hPa | 0 mm | - | 3 W/m² | - |
| 1777940246 | 22.78° C | 50% | 1007.5 hPa | 0 mm | - | 5 W/m² | - |
| 1777939943 | 22.78° C | 49% | 1007.8 hPa | 0 mm | - | 6 W/m² | - |
| 1777939640 | 22.78° C | 49% | 1007.7 hPa | 0 mm | - | 7 W/m² | - |
| 1777939338 | 23.33° C | 48% | 1007.6 hPa | 0 mm | - | 9 W/m² | - |
| 1777939034 | 23.33° C | 48% | 1007.9 hPa | 0 mm | - | 12 W/m² | - |
| 1777938730 | 23.33° C | 47% | 1007.9 hPa | 0 mm | - | 15 W/m² | - |
| 1777938428 | 23.33° C | 47% | 1008 hPa | 0 mm | - | 17 W/m² | - |
| 1777938125 | 23.33° C | 46% | 1008.2 hPa | 0 mm | - | 18 W/m² | - |
| 1777937821 | 23.33° C | 46% | 1008 hPa | 0 mm | - | 14 W/m² | - |
| 1777937517 | 23.89° C | 45% | 1008.3 hPa | 0 mm | - | 12 W/m² | - |
| 1777937215 | 23.89° C | 45% | 1008.4 hPa | 0 mm | - | 14 W/m² | - |
| 1777936911 | 23.89° C | 44% | 1008.3 hPa | 0 mm | - | 14 W/m² | - |
| 1777936608 | 23.89° C | 44% | 1008.4 hPa | 0 mm | - | 18 W/m² | - |
| 1777936304 | 24.44° C | 44% | 1008.4 hPa | 0 mm | - | 24 W/m² | - |
| 1777936001 | 24.44° C | 44% | 1008.2 hPa | 0 mm | - | 32 W/m² | - |
| 1777935700 | 24.44° C | 43% | 1008.4 hPa | 0 mm | - | 35 W/m² | - |
* Rain latest hour (hover to see other rain measurements)
** Current wind speed in m/s (hover to see current wind gust speed)